Regional Weather Roundup
Issued by NWS

Home | Current Version | Previous Version | Graphics & Text | Print | Product List | Glossary On
Versions: 1 2 3 4 5 6 7 8 9 10 11 12 13 14 15 16 17 18 19 20 21 22 23 24 25 26 27 28 29 30 31 32 33 34 35 36 37 38 39 40 41 42 43 44 45 46 47 48 49 50
000
ASUS43 KIND 180909
RWRIN

WEATHER ROUNDUP FOR INDIANA
NATIONAL WEATHER SERVICE INDIANAPOLIS IN
400 AM EST THU DEC 18 2014

NOTE: "FAIR" INDICATES FEW OR NO CLOUDS BELOW 12,000 FEET WITH NO
SIGNIFICANT WEATHER AND/OR OBSTRUCTIONS TO VISIBILITY.

* - STATION DOES NOT REPORT WEATHER SUCH AS PRECIPITATION OR FOG.

+ - STATION NOT QUALITY CONTROLLED BY THE NATIONAL WEATHER SERVICE.
    USE DATA WITH CAUTION...ESPECIALLY DEWPOINT AND RELATIVE
    HUMIDITY OBSERVATIONS.

INZ001>003-010>013-019-020-181000-
NORTHWEST INDIANA

CITY           SKY/WX    TMP DP  RH WIND       PRES   REMARKS
GARY /AIRPORT/ CLOUDY    27  18  69 W3        30.29F
KNOX *+        CLOUDY    26  20  77 W5        30.26F WCI  20
LA PORTE +     CLOUDY    28  22  79 W3        30.26F
MICHIGAN CITY+ CLOUDY    28  19  69 NW3       30.27F
MONTICELLO +   CLOUDY    25  18  76 NW3       30.29R
RENSSELAER +   CLOUDY    27  23  86 W5        30.29S WCI  21
VALPARAISO     CLOUDY    25  18  74 SW6       30.28S WCI  18

$$

LMZ046-743>745-181000-
SOUTHERN LAKE MICHIGAN

STATION/POSITION TIME  TEMP WIND        PRES
                       AIR  DIR/SP/G
                 (UTC) (F)  (DEG/KT/KT) (MB)

$$

INZ004-005-014>016-021>024-181000-
NORTH CENTRAL INDIANA

CITY           SKY/WX    TMP DP  RH WIND       PRES   REMARKS
GOSHEN         CLOUDY    27  21  78 W8        30.25R WCI  19
LOGANSPORT +   CLOUDY    27  19  74 W5        30.29S WCI  21
PERU/GRISSOM   CLOUDY    25  24  96 W8        30.28R WCI  16
ROCHESTER +    CLOUDY    28  23  80 W3        30.27F
SOUTH BEND     CLOUDY    28  21  75 NW7       30.26S WCI  21
WARSAW +       CLOUDY    27  21  80 W6        30.26S WCI  20

$$

INZ006>009-017-018-025>027-181000-
NORTHEAST INDIANA

CITY           SKY/WX    TMP DP  RH WIND       PRES   REMARKS
ANGOLA *+      CLOUDY    27  21  80 NW5       30.21F WCI  21
AUBURN +       CLOUDY    28  23  80 W5        30.25S WCI  23
FORT WAYNE     CLOUDY    27  21  78 W9        30.26S WCI  18
HUNTINGTON +   CLOUDY    26  21  81 W3        30.26F

$$

INZ028-029-035-036-043>045-051>053-181000-
WEST CENTRAL INDIANA

CITY           SKY/WX    TMP DP  RH WIND       PRES   REMARKS
GREENCASTLE +  CLOUDY    25  18  74 NE3       30.29S
LAFAYETTE      CLOUDY    24  18  77 CALM      30.28F
TERRE HAUTE    CLOUDY    25  19  78 NE5       30.29F WCI  19

$$

INZ030>032-037>040-046>048-054>057-064-065-181000-
CENTRAL INDIANA

CITY           SKY/WX    TMP DP  RH WIND       PRES   REMARKS
CP ATTERBURY + CLOUDY    27  21  80 MISG      30.30F
FRANKFORT +    CLOUDY    26  19  77 W3        30.30S
INDIANAPOLIS   CLOUDY    24  18  77 NE3       30.27F
-EAGLE CREEK   CLOUDY    25  19  78 CALM      30.27F
KOKOMO *+      CLOUDY    27  18  69 W6        30.28S WCI  20
MARION +       CLOUDY    25  22  87 W6        30.27F WCI  18
MT COMFORT *+  CLOUDY    25  16  68 NW5       30.27F WCI  19
SHELBYVILLE    CLOUDY    27  18  69 NE3       30.28F
ZIONSVILLE +   CLOUDY    25  18  73 CALM      30.28S

$$

INZ033-034-041-042-049-050-058-059-181000-
EAST CENTRAL INDIANA

CITY           SKY/WX    TMP DP  RH WIND       PRES   REMARKS
MUNCIE         CLOUDY    25  19  78 W5        30.27S WCI  19

$$

INZ060-061-067>069-081>083-085>088-181000-
SOUTHWEST INDIANA

CITY           SKY/WX    TMP DP  RH WIND       PRES   REMARKS
EVANSVILLE     CLOUDY    30  24  78 NE5       30.29F WCI  25
HUNTINGBURG *+ CLOUDY    28  21  74 N5        30.29F WCI  23
WASHINGTON +   CLOUDY    26  19  74 NE3       30.29F

$$

INZ062-063-066-070>080-084-089>092-181000-
SOUTH CENTRAL AND SOUTHEAST INDIANA

CITY           SKY/WX    TMP DP  RH WIND       PRES   REMARKS
BLOOMINGTON    CLOUDY    25  20  81 NE6       30.27F WCI  18

$$



USA.gov is the U.S. government's official web portal to all federal, state and local government web resources and services.